Orbital Elements at Epoch 2459000.5 (2020-May-31.0) TDB
Reference: JPL 9 (heliocentric ecliptic J2000)
Element | Value | Uncertainty (1-sigma) | Units |
e | .1785670957090032 | 6.7897e-08 | |
a | 2.332956060766239 | 2.5626e-08 | au |
q | 1.916366872578495 | 1.5681e-07 | au |
i | 2.205271759562189 | 1.0572e-05 | deg |
node | 337.9732471955313 | 0.00027039 | deg |
peri | 157.4974663286097 | 0.00027495 | deg |
M | 317.8653477255799 | 5.4637e-05 | deg |
tp | 2459152.833415365978 (2020-Oct-30.33341537) | 0.00019958 | TDB |
period | 1301.542235938788 3.56 | 2.1445e-05 5.871e-08 | d yr |
n | .2765949425685261 | 4.5574e-09 | deg/d |
Q | 2.749545248953983 | 3.0202e-08 | au |
|
| | Orbit Determination Parameters
Additional Information
|